Voltar ao catálogo

GLOBALSTAR M046

AtivoComunicaçõesLEO
NORAD 25651·PAYLOAD·🇺🇸 United States

Lançado Mar 15, 1999 de Baikonur Cosmodrome

Loading…

Próximas Passagens (próximas 24 horas)

TLE

AtualizadoSource: Space-Track

Época: Sep 14, 2026, 11:25 UTC

1 25651U 99012C   26257.47618046 -.00000132  00000-0 -48199-3 0  9990
2 25651  52.0049  69.4650 0002717  82.2948 293.8479 12.09427273238632

Acompanhe GLOBALSTAR M046 em tempo real com AllMySat

Download on the App Store